{"data":{"norad_id":51770,"intl_designator":"2022-017C","name":"STARLINK-3612","alt_names":[],"object_type":"PAYLOAD","status":"ACTIVE","operator":null,"country":"US","launch_date":"2022-02-25","launch_site_code":"AFWTR","launch_vehicle":null,"mission":null,"orbit_class":"UNKNOWN","rcs_meters":null,"size_class":null,"mass_kg":null,"dimensions":null,"purposes":["comms"],"wikipedia_slug":null,"has_3d_model":false,"image_url":null,"decayed_at":null,"tle_current":{"epoch":"2026-05-24T23:48:25.173792Z","epoch_age_seconds":76534,"freshness":"FRESH","line1":"1 51770U 22017C   26144.99195803 -.00005727  00000+0 -34170-3 0  9993","line2":"2 51770  53.2149 356.5856 0001407  94.1559 265.9594 15.08869979234134","mean_motion":15.08869979,"eccentricity":0.0001407,"inclination_deg":53.2149,"raan_deg":356.5856,"arg_perigee_deg":94.1559,"mean_anomaly_deg":265.9594,"bstar":-0.0003417,"rev_number":23413,"period_min":95.435658475647,"perigee_km":538.67842379352,"apogee_km":540.62508954964,"semimajor_km":6917.7887566716,"source":"CELESTRAK","updated_at":"2026-05-25T13:38:16.949856Z"}}}